Regional Weather Roundup
Issued by NWS

Home | Current Version | Previous Version | Graphics & Text | Print | Product List | Glossary On
Versions: 1 2 3 4 5 6 7 8 9 10 11 12 13 14 15 16 17 18 19 20 21 22 23 24 25 26 27 28 29 30 31 32 33 34 35 36 37 38 39 40 41 42 43 44 45 46 47 48 49 50
000
ASUS43 KMKX 291611
RWRWI

WISCONSIN REGIONAL WEATHER ROUNDUP
NATIONAL WEATHER SERVICE MILWAUKEE/SULLIVAN WI
1100 AM CDT SAT AUG 29 2015

NOTE: "FAIR" INDICATES FEW OR NO CLOUDS BELOW 12,000 FEET WITH NO
SIGNIFICANT WEATHER AND/OR OBSTRUCTIONS TO VISIBILITY.

WIZ001-002-006>008-014>016-023>028-291700-
NORTHWEST WISCONSIN

CITY           SKY/WX    TMP DP  RH WIND       PRES   REMARKS
SUPERIOR ARPT  CLOUDY    67  59  75 W8        30.04R
ASHLAND        MOSUNNY   70  62  76 SW8       30.05R
HAYWARD        SUNNY     67  57  70 S10       30.06F
SIREN          SUNNY     68  57  68 SW7       30.07S
CUMBERLAND     CLOUDY    59  57  94 SW5       30.09R FOG
RICE LAKE      CLOUDY    62  58  86 W3        30.10R
CHETEK         CLOUDY   N/A N/A N/A CALM      30.07S
LADYSMITH      CLOUDY    64  60  84 NW3       30.09S
EAU CLAIRE     CLOUDY    61  57  87 NW3       30.07R
MENOMONIE      CLOUDY    62  59  92 CALM      30.08R
NEW RICHMOND   CLOUDY    60  59  96 SW3       30.09S FOG
OSCEOLA        CLOUDY    61  61 100 CALM      30.11S
$$

WIZ003>005-009-010-017-018-291700-
NORTH CENTRAL WISCONSIN

CITY           SKY/WX    TMP DP  RH WIND       PRES   REMARKS
MANITOWISH WTR MOSUNNY   67  58  72 S3        30.08S
ARBOR VITAE    SUNNY     67  58  73 S5        30.08S
WOODRUFF       SUNNY     67  58  73 S5        30.08S
RHINELANDER    PTSUNNY   67  58  72 SW6       30.09S
EAGLE RIVER    MOSUNNY   67  56  69 W5        30.08S
LAND O LAKES   PTSUNNY   69  57  65 W7        30.09S
PHILLIPS       PTSUNNY   66  59  76 S6        30.08S
TOMAHAWK       CLOUDY    64  58  83 SE3       30.09S
MEDFORD        CLOUDY    60  59  94 CALM      30.09R
MERRILL        CLOUDY    64  60  87 S3        30.09R
$$

WIZ029-030-035-036-043>047-291700-
CENTRAL WISCONSIN

CITY           SKY/WX    TMP DP  RH WIND       PRES   REMARKS
WAUSAU         CLOUDY    63  59  87 S6        30.07R
MOSINEE        CLOUDY    61  61 100 SE7       30.09R
MARSHFIELD     CLOUDY    64  58  80 S6        30.07R
STEVENS POINT  CLOUDY    60  58  96 E3        30.09R FOG
WAUPACA        CLOUDY    64  63  96 E6        30.08R
WAUTOMA        CLOUDY    63  63 100 NE3       30.07R
WISC RAPIDS    NOT AVBL
CAMP DOUGLAS   CLOUDY    63  63 100 E6        30.05S
$$

WIZ011>013-019>022-031-037>040-048>050-291700-
NORTHEAST WISCONSIN

CITY           SKY/WX    TMP DP  RH WIND       PRES   REMARKS
ANTIGO         CLOUDY    62  59  90 S8        30.09R
SHAWANO        CLOUDY    64  61  89 CALM      30.09R
OCONTO         CLOUDY    61  61 100 S5        30.09R
STURGEON BAY   CLOUDY    63  59  88 S8        30.11S
GREEN BAY      CLOUDY    64  61  90 SE8       30.08S FOG
MANITOWOC      CLOUDY    62  60  93 SE12      30.08S
APPLETON       CLOUDY    63  63 100 E8        30.05S
CLINTONVILLE   CLOUDY    63  61  94 E5        30.09R
OSHKOSH        CLOUDY    63  60  90 E8        30.05F
$$

WIZ032>034-041-042-053>061-291700-
SOUTHWEST WISCONSIN

CITY           SKY/WX    TMP DP  RH WIND       PRES   REMARKS
LA CROSSE      CLOUDY    65  59  81 CALM      30.05R
SPARTA         CLOUDY    64  60  86 E8        30.06S
VIROQUA        CLOUDY    63  63 100 NE6       30.05S
BOSCOBEL       CLOUDY    66  63  90 CALM      30.03R
PRAIRIE DU CHI CLOUDY    64  62  95 N3        30.03S
PLATTEVILLE    CLOUDY    67  66  96 N3        30.02S
$$

WIZ056-057-062-063-064-067-068-291700-
SOUTH CENTRAL WISCONSIN

CITY           SKY/WX    TMP DP  RH WIND       PRES   REMARKS
REEDSBURG      CLOUDY    62  61  96 NE3       30.05R
BARABOO/DELLS  CLOUDY    62  60  94 E6        30.05R
LONE ROCK      CLOUDY    66  63  90 NE7       30.04R
MINERAL POINT  CLOUDY    66  64  94 NE3       30.03S
MADISON        DRIZZLE   64  62  93 SE6       30.03S FOG
MIDDLETON      CLOUDY    66  66  99 E3        30.04S
WATERTOWN      CLOUDY    63  63 100 SE3       30.04S
MONROE         CLOUDY    64  63  94 S6        30.02F FOG
JANESVILLE     NOT AVBL
$$

WIZ051-052-058>065-066-070>072-291700-
SOUTHEAST WISCONSIN

CITY           SKY/WX    TMP DP  RH WIND       PRES   REMARKS
MILWAUKEE      CLOUDY    63  60  90 SE10      30.05S
WAUKESHA       CLOUDY    61  61 100 SE3       30.06S FOG
MILWAUKEE/TIMM DRIZZLE   61  57  88 SE7       30.07R
RACINE         CLOUDY    63  60  90 SE7       30.07S
BURLINGTON     CLOUDY    61  61  98 SE3       30.05S FOG
KENOSHA        CLOUDY    64  62  93 SE8       30.05S
FOND DU LAC    CLOUDY    64  61  90 SE8       30.05F
SHEBOYGAN      CLOUDY    62  61  96 SE7       30.08R FOG
WEST BEND      DRIZZLE   61  61 100 CALM      30.07R
JUNEAU         CLOUDY    62  61  97 E6        30.06F FOG
$$

LSZ147-162-291700-
LAKE SUPERIOR

STATION/POSITION TIME  TEMP    WIND        PRES    WAVE
                       AIR SEA DIR/SP/G            HT/PER
                 (UTC) (F)     (DEG/KT/KT) (MB)    (FT/S)
W MID LAKE BUOY  1550   56 54  240/ 12/ 14 1016.8R   2/ 4
DEVILS ISLAND    1600   59     220/ 13/ 16 1017.0R
PORT WING        1400   63     220/  5/  8 1016.9S
SAXON HARBOR     1540   68     200/  4/  7 1016.9R
$$

LMZ867-665-643>646-291700-
LAKE MICHIGAN

STATION/POSITION TIME  TEMP    WIND        PRES    WAVE
                       AIR SEA DIR/SP/G            HT/PER
                 (UTC) (F)     (DEG/KT/KT) (MB)    (FT/S)
CHAMBERS ISLAND  1500   65     190/  4/  7 1018.3F
S GREEN BAY BUOY 1600   60 62  170/  4/  4 1020.1R
N MID LAKE BUOY  1550   63 64  200/ 12/ 16 1018.2S   1/ 4
NORTHPORT PIER   1500   62     140/  5/  7 1018.3S
SISTER BAY       1519   68     180/  7/  9   N/A
ALGOMA LAKESHORE 1514             CALM       N/A
SHEBOYGAN LAKESH 1600   56     190/  4/  5 1018.8R
PORT WASHINGTON  1500   57     200/  3/  7 1018.6R
ATWATER BUOY     1600   55 48   40/  4/  6 1019.3R
MILWAUKEE LAKESH 1500   55     170/  3/  4   N/A
S MID LAKE BUOY  1550   66 68  130/ 12/ 14 1017.6S   2/ 4
KENOSHA   LAKESH 1600   59     130/  1/  2 1017.3F
$$

TC  - TEMPERATURE IN CELSIUS
VSB - VISIBILITY IN STATUTE MILES
WCI - WIND CHILL INDEX
HX  - HEAT INDEX



USA.gov is the U.S. government's official web portal to all federal, state and local government web resources and services.